Bradford, PA

9:15 PM EST on December 13, 2019 (GMT -0500)
Bradford Regional

Weather History for KBFD - August, 2019

Change the Weather History Date:

Friday, August 16, 2019

  Actual Average Record
Temperature  
Mean Temperature 68 °F 64 °F  
Max Temperature 80 °F 76 °F 86 °F (1987)
Min Temperature 56 °F 52 °F 37 °F (1964)
Degree Days  
Heating Degree Days 0 1  
Month to date heating degree days 11 8  
Since 1 June heating degree days 145 217  
Since 1 July heating degree days 23 72  
Cooling Degree Days 3 2  
Month to date cooling degree days 40 32  
Year to date cooling degree days 230 156  
Since 1 June cooling degree days 223 146  
Growing Degree Days 18 (Base 50)    
Moisture  
Dew Point 61 °F    
Average Humidity 76    
Maximum Humidity 100    
Minimum Humidity 51    
Precipitation  
Precipitation T in 0.14 in 2.32 in (1969)
Month to date precipitation 2.89 2.13  
Year to date precipitation 30.86 27.97  
Sea Level Pressure  
Sea Level Pressure 30.00 in    
Wind  
Wind Speed 4 mph (South)    
Max Wind Speed 12 mph    
Max Gust Speed 17 mph    
Visibility 4 miles    
Events Fog , Rain    
T = Trace of Precipitation, MM = Missing Value Source: NWS Daily Summary

Daily Weather History Graph

Daily Weather History Graph

Search for Another Location

Airport or City:

Astronomy

Aug. 16, 2019 Rise Set
Actual Time 6:23 AM EDT 8:13 PM EDT
Civil Twilight 5:53 AM EDT 8:43 PM EDT
Nautical Twilight 5:17 AM EDT 9:19 PM EDT
Astronomical Twilight 4:37 AM EDT 9:58 PM EDT
Moon 9:11 PM EDT (8/16) 7:13 AM EDT (8/16)
Length of Visible Light 14h 49m
Length of Day
13h 49m
Full, 99% of the Moon is Illuminated
Aug 16
Full
Aug 23
Last Quarter
Aug 30
New
Sep 5
First Quarter
Sep 14
Full

Hourly Weather History & Observations

Time (EDT) Temp. Heat Index Dew Point Humidity Pressure Visibility Wind Dir Wind Speed Gust Speed Precip Events Conditions
12:14 AM 64.0 °F - 62.1 °F 93% 30.00 in 10.0 mi SE 6.9 mph - 0.00 in   Overcast
12:53 AM 62.1 °F - 61.0 °F 96% 29.95 in 10.0 mi Calm Calm - 0.00 in   Partly Cloudy
1:38 AM 60.1 °F - 60.1 °F 100% 30.00 in 2.0 mi SE 3.5 mph - N/A   Mostly Cloudy
1:53 AM 60.1 °F - 60.1 °F 100% 29.96 in 8.0 mi SE 3.5 mph - N/A   Partly Cloudy
2:03 AM 60.1 °F - 59.0 °F 96% 30.00 in 1.8 mi SE 3.5 mph - N/A   Clear
2:13 AM 59.0 °F - 59.0 °F 100% 30.00 in 0.5 mi SE 3.5 mph - N/A Fog Fog
2:24 AM 60.1 °F - 60.1 °F 100% 30.00 in 2.5 mi SE 3.5 mph - N/A   Clear
2:31 AM 59.0 °F - 59.0 °F 100% 30.00 in 1.0 mi SE 3.5 mph - N/A   Clear
2:38 AM 59.0 °F - 59.0 °F 100% 30.00 in 0.2 mi Calm Calm - N/A Fog Fog
2:53 AM 59.0 °F - 59.0 °F 100% 29.96 in 0.5 mi Calm Calm - N/A Fog Fog
3:12 AM 60.1 °F - 59.0 °F 96% 30.00 in 1.5 mi Calm Calm - N/A   Partly Cloudy
3:15 AM 60.1 °F - 59.0 °F 96% 30.00 in 3.0 mi Calm Calm - N/A   Partly Cloudy
3:19 AM 59.0 °F - 59.0 °F 100% 30.00 in 1.5 mi Calm Calm - N/A   Partly Cloudy
3:28 AM 59.0 °F - 57.9 °F 96% 30.00 in 0.5 mi Calm Calm - N/A Fog Fog
3:30 AM 59.0 °F - 57.9 °F 96% 30.00 in 0.5 mi Calm Calm - N/A Fog Fog
3:53 AM 59.0 °F - 57.9 °F 96% 29.96 in 0.2 mi Calm Calm - N/A Fog Fog
4:03 AM 57.9 °F - 57.9 °F 100% 30.00 in 0.5 mi Calm Calm - N/A Fog Fog
4:13 AM 57.9 °F - 57.9 °F 100% 30.01 in 0.2 mi Calm Calm - N/A Fog Fog
4:23 AM 57.9 °F - 57.9 °F 100% 30.01 in 0.5 mi SSE 3.5 mph - N/A Fog Fog
4:41 AM 57.0 °F - 57.0 °F 100% 30.01 in 0.2 mi Calm Calm - N/A Fog Fog
4:53 AM 57.9 °F - 57.0 °F 97% 29.96 in 0.5 mi Calm Calm - N/A Fog Fog
5:03 AM 57.9 °F - 57.9 °F 100% 30.01 in 2.0 mi ESE 3.5 mph - N/A   Overcast
5:12 AM 59.0 °F - 57.9 °F 96% 30.01 in 5.0 mi SE 3.5 mph - N/A   Overcast
5:53 AM 57.9 °F - 57.9 °F 100% 29.98 in 4.0 mi SE 3.5 mph - N/A   Mostly Cloudy
6:18 AM 57.9 °F - 57.9 °F 100% 30.01 in 1.5 mi Calm Calm - N/A   Overcast
6:26 AM 59.0 °F - 59.0 °F 100% 30.01 in 0.2 mi Calm Calm - N/A Fog Fog
6:38 AM 59.0 °F - 59.0 °F 100% 30.01 in 0.5 mi Calm Calm - N/A Fog Fog
6:48 AM 59.0 °F - 59.0 °F 100% 30.01 in 2.0 mi Calm Calm - N/A   Mostly Cloudy
6:49 AM 59.0 °F - 59.0 °F 100% 30.01 in 1.5 mi Calm Calm - N/A   Mostly Cloudy
6:53 AM 59.0 °F - 57.9 °F 96% 29.99 in 0.2 mi Calm Calm - N/A Fog Fog
7:16 AM 59.0 °F - 59.0 °F 100% 30.02 in 0.2 mi Calm Calm - N/A Fog Fog
7:38 AM 61.0 °F - 61.0 °F 100% 30.02 in 1.0 mi Calm Calm - N/A   Overcast
7:45 AM 62.1 °F - 61.0 °F 96% 30.02 in 3.0 mi Calm Calm - N/A   Overcast
7:53 AM 62.1 °F - 62.1 °F 100% 30.00 in 3.0 mi Calm Calm - N/A   Overcast
8:20 AM 64.0 °F - 64.0 °F 100% 30.03 in 4.0 mi Variable 3.5 mph - N/A   Overcast
8:39 AM 64.9 °F - 64.9 °F 100% 30.03 in 2.5 mi South 4.6 mph - N/A   Overcast
8:53 AM 66.0 °F - 66.0 °F 100% 29.99 in 2.5 mi South 6.9 mph - N/A   Overcast
9:13 AM 66.0 °F - 66.0 °F 100% 30.03 in 3.0 mi Variable 4.6 mph - N/A   Overcast
9:36 AM 66.0 °F - 66.0 °F 100% 30.03 in 4.0 mi Calm Calm - N/A   Overcast
9:53 AM 66.9 °F - 66.0 °F 97% 30.00 in 5.0 mi South 3.5 mph - N/A   Overcast
10:24 AM 69.1 °F - 66.0 °F 90% 30.04 in 7.0 mi SW 4.6 mph - N/A   Overcast
10:53 AM 69.1 °F - 66.0 °F 90% 30.00 in 7.0 mi SW 3.5 mph - N/A   Overcast
11:14 AM 71.1 °F - 66.0 °F 84% 30.04 in 9.0 mi SW 4.6 mph - N/A   Mostly Cloudy
11:53 AM 73.9 °F - 66.9 °F 79% 30.01 in 10.0 mi Variable 4.6 mph - N/A   Mostly Cloudy
12:13 PM 73.0 °F - 66.0 °F 79% 30.05 in 10.0 mi West 4.6 mph - N/A   Mostly Cloudy
12:53 PM 75.0 °F - 64.0 °F 69% 29.99 in 10.0 mi WNW 9.2 mph - N/A   Mostly Cloudy
1:53 PM 78.1 °F - 61.0 °F 56% 29.99 in 10.0 mi Variable 5.8 mph - N/A   Clear
2:53 PM 79.0 °F - 60.1 °F 52% 29.98 in 10.0 mi WSW 10.4 mph - N/A   Clear
3:53 PM 79.0 °F - 60.1 °F 52% 29.97 in 10.0 mi Variable 6.9 mph - N/A   Partly Cloudy
4:53 PM 80.1 °F 81.1 °F 61.0 °F 52% 29.97 in 10.0 mi West 8.1 mph - N/A   Mostly Cloudy
5:53 PM 77.0 °F - 62.1 °F 60% 29.97 in 10.0 mi SW 6.9 mph - 0.00 in Rain Light Rain
6:53 PM 75.9 °F - 60.1 °F 58% 29.96 in 10.0 mi Variable 5.8 mph - 0.00 in   Clear
7:53 PM 73.0 °F - 60.1 °F 64% 29.98 in 10.0 mi West 3.5 mph - N/A   Clear
8:53 PM 66.9 °F - 62.1 °F 84% 29.99 in 10.0 mi Calm Calm - N/A   Clear
9:53 PM 63.0 °F - 61.0 °F 93% 30.01 in 7.0 mi ESE 3.5 mph - N/A   Clear
10:53 PM 61.0 °F - 60.1 °F 97% 30.02 in 1.2 mi ESE 3.5 mph - N/A   Clear
11:11 PM 60.1 °F - 59.0 °F 96% 30.05 in 3.0 mi Calm Calm - N/A   Clear
11:49 PM 59.0 °F - 59.0 °F 100% 30.05 in 2.5 mi Calm Calm - N/A   Clear
11:53 PM 59.0 °F - 57.9 °F 96% 30.01 in 1.5 mi ESE 3.5 mph - N/A   Clear